Temperature
3 3 4 4 5 6 6 7 7 8 8 8 8 9 9 9 9 9 10 10 10 10 10 10 10 10 10 10 10 10 10 10 10 10 10 9 10 10 10 10 10 10 10
2 3 3 4 4 5 5 6 6 7 7 7 8 8 8 8 9 9 9 9 9 9 9 9 9 9 9 9 10 10 10 10 10 10 10 9 9 9 9 9 9 9 9
0 1 2 3 3 4 4 5 5 6 6 7 7 7 7 8 8 8 9 9 9 9 9 9 9 9 9 9 9 9 9 10 9 9 10 9 9 9 9 9 9 9 9
-1 -0 1 2 2 3 3 4 5 5 6 6 6 7 7 7 7 8 8 8 9 9 9 9 9 9 9 9 9 9 9 9 9 9 9 9 9 9 9 9 9 9 9
-1 -1 -0 1 2 2 3 3 4 5 5 5 6 6 6 6 7 7 7 8 8 8 8 8 8 8 8 9 9 9 9 9 9 9 9 9 9 9 9 9 9 9 9
-2 -1 -1 0 1 2 2 3 3 4 4 4 5 5 5 5 6 6 7 7 7 8 8 8 8 8 8 8 8 8 8 9 9 9 9 9 9 9 9 9 9 9 9
-3 -2 -1 -0 0 1 1 2 3 3 3 4 4 4 4 5 5 6 6 6 7 7 7 7 8 8 8 8 8 8 8 8 8 8 8 8 8 9 9 9 9 8 8
-3 -3 -2 -1 -1 -0 1 1 2 2 3 3 3 3 4 4 4 4 5 5 6 6 6 7 7 7 7 7 7 8 8 8 8 8 8 8 8 8 8 8 8 8 8
-4 -3 -3 -2 -1 -1 -0 0 1 1 2 2 2 3 3 3 4 4 4 5 5 6 6 6 7 7 7 7 7 7 7 8 8 8 8 8 8 8 8 8 8 8 8
-4 -4 -3 -3 -2 -1 -1 -0 0 1 1 1 2 2 2 3 3 3 4 4 4 5 5 6 6 6 6 7 7 7 7 7 7 7 7 7 7 7 7 7 7 7 7
-5 -5 -4 -3 -3 -2 -1 -1 -1 -0 0 0 1 1 2 2 2 3 3 4 4 4 4 5 5 6 6 6 6 7 7 7 7 7 7 7 7 7 7 7 7 7 7
-5 -5 -5 -4 -3 -2 -2 -2 -2 -1 -1 -1 -0 0 1 1 2 2 3 3 3 3 4 4 5 5 5 6 6 6 6 6 7 7 7 7 7 7 7 7 7 7 7
-5 -5 -5 -4 -4 -3 -3 -3 -2 -2 -2 -1 -1 -0 0 1 1 1 2 2 2 3 3 4 4 4 5 5 5 5 6 6 6 6 6 6 6 6 7 7 7 7 7
-6 -6 -5 -5 -5 -4 -4 -3 -3 -3 -2 -2 -2 -1 -1 -0 0 1 1 1 2 2 3 3 3 4 4 4 5 5 5 5 5 5 5 6 6 6 6 6 6 6 6
-6 -6 -6 -6 -5 -5 -4 -4 -3 -3 -3 -2 -2 -2 -1 -1 -1 -0 0 1 1 1 2 2 2 3 3 3 4 4 4 4 5 5 5 5 5 5 5 5 6 6 6
-7 -7 -6 -6 -6 -5 -5 -4 -4 -4 -3 -3 -3 -2 -2 -2 -1 -1 -1 -0 0 0 1 1 1 2 2 3 3 3 3 4 4 4 4 5 5 5 5 5 5 5 5
-7 -7 -7 -7 -6 -6 -6 -5 -5 -4 -4 -4 -3 -3 -3 -2 -2 -2 -1 -1 -1 -0 -0 0 1 1 2 2 2 2 2 3 3 3 4 4 4 4 4 4 4 4 4
-8 -7 -7 -7 -6 -6 -6 -6 -5 -5 -5 -4 -4 -4 -4 -3 -3 -3 -2 -2 -1 -1 -1 -0 0 0 1 1 1 1 1 2 2 3 3 3 3 3 4 4 4 4 4
-8 -8 -7 -7 -7 -6 -6 -6 -6 -5 -5 -5 -5 -4 -4 -4 -3 -3 -3 -2 -2 -2 -1 -1 -1 -0 0 0 0 1 1 1 2 2 2 2 3 3 3 3 3 3 3
-8 -8 -8 -7 -7 -7 -7 -7 -6 -6 -6 -5 -5 -5 -5 -4 -4 -4 -3 -3 -3 -3 -2 -2 -1 -1 -1 -0 -0 -0 -0 0 1 1 1 2 2 2 2 2 2 2 3
-8 -8 -8 -8 -8 -7 -7 -7 -7 -6 -6 -6 -6 -6 -5 -5 -5 -4 -4 -4 -3 -3 -3 -3 -2 -2 -1 -1 -1 -1 -1 -0 0 0 1 1 1 1 1 1 2 2 2
-8 -8 -8 -8 -8 -8 -7 -7 -7 -7 -7 -7 -6 -6 -6 -6 -5 -5 -5 -4 -4 -4 -4 -3 -3 -2 -2 -2 -1 -1 -1 -1 -1 -0 -0 0 0 1 1 1 1 1 1
-9 -9 -9 -8 -8 -8 -8 -8 -7 -7 -7 -7 -7 -6 -6 -6 -6 -6 -5 -5 -5 -5 -4 -4 -3 -3 -2 -2 -2 -2 -2 -1 -1 -1 -1 -0 -0 -0 -0 0 0 0 0
-9 -9 -9 -9 -8 -8 -8 -8 -8 -8 -8 -7 -7 -7 -7 -6 -6 -6 -6 -6 -5 -5 -5 -5 -4 -4 -3 -3 -2 -2 -2 -2 -1 -1 -1 -1 -1 -1 -1 -1 -1 -0 -0
-9 -9 -9 -9 -9 -9 -8 -8 -8 -8 -8 -8 -8 -7 -7 -7 -7 -7 -6 -6 -6 -6 -5 -5 -5 -4 -4 -3 -3 -3 -3 -2 -2 -2 -2 -2 -2 -2 -2 -1 -1 -1 -1
-10 -9 -9 -9 -9 -9 -9 -9 -9 -9 -9 -8 -8 -8 -8 -8 -7 -7 -7 -7 -6 -6 -6 -6 -5 -5 -5 -4 -4 -4 -3 -3 -3 -3 -3 -3 -3 -2 -2 -2 -2 -2 -2
Wind_Speed
7 7 6 5 5 5 5 4 3 3 2 1 1 0 1 1 0 0 2 4 5 6 5 4 5 6 5 5 5 4 5 3 3 3 2 2 1 1 1 1 2 2 2
10 11 10 8 7 6 6 5 3 2 2 1 1 1 1 1 2 1 1 3 4 6 6 5 4 5 4 5 5 5 4 3 3 3 3 1 1 1 0 1 1 1 2
10 11 10 9 8 7 6 5 5 3 3 2 1 1 1 1 0 1 1 1 3 4 5 6 5 5 5 6 5 6 6 4 3 2 3 3 3 1 1 1 1 2 1
9 9 10 10 9 8 6 5 4 4 3 2 1 1 1 1 2 2 2 2 3 3 4 5 5 5 5 5 5 5 4 6 5 2 1 2 3 3 1 1 1 2 2
10 9 10 10 9 9 7 5 5 4 3 2 1 1 1 1 2 2 2 2 2 3 3 4 4 5 5 5 6 5 4 4 5 4 3 2 1 2 3 2 2 1 2
10 10 10 9 9 9 7 6 5 5 4 3 2 1 1 2 2 2 2 2 2 2 3 3 4 5 5 6 6 6 5 5 5 4 4 4 3 3 3 3 3 2 2
9 11 12 11 11 10 9 7 7 6 5 4 4 3 2 1 2 2 2 2 2 2 3 3 3 4 4 5 6 6 5 5 6 6 4 4 3 3 3 3 2 2 1
10 10 10 10 10 10 9 8 7 6 5 4 4 4 3 2 2 2 2 3 3 3 3 4 4 4 5 5 5 5 5 5 6 6 6 4 4 4 4 4 4 2 1
10 10 10 10 10 10 10 8 7 7 6 5 5 4 4 3 4 3 3 3 3 3 3 3 4 3 4 5 5 4 5 5 6 6 6 5 4 4 4 4 4 5 4
11 11 10 10 9 8 8 8 7 7 6 6 5 4 4 4 4 3 3 3 3 3 3 3 3 4 4 5 5 4 4 5 5 5 6 5 4 4 4 4 4 4 4
10 10 9 9 8 8 7 7 7 7 7 7 6 5 5 4 4 3 3 3 3 3 3 4 4 4 4 5 5 5 5 5 4 5 6 6 5 5 4 4 4 4 3
8 8 8 8 8 8 8 7 7 6 7 6 6 5 5 5 4 4 4 3 3 3 3 3 3 4 4 4 4 5 5 5 5 6 6 6 5 5 5 5 5 5 4
9 8 8 8 9 9 8 7 7 7 6 6 6 6 6 5 5 5 4 3 3 3 3 2 2 3 4 4 4 4 4 4 4 5 6 6 5 5 4 5 5 4 4
9 8 9 9 9 8 8 8 8 7 6 6 5 6 5 5 5 5 5 4 3 3 3 3 3 3 3 3 3 3 4 4 4 4 5 6 6 6 6 5 5 5 4
10 10 9 9 9 9 8 8 8 7 7 6 6 6 6 5 5 5 5 4 3 4 3 3 3 3 3 3 3 3 3 4 4 3 4 5 6 7 6 5 5 6 5
10 10 10 10 10 9 9 9 8 8 7 6 6 6 6 6 5 5 5 4 3 4 3 3 3 3 3 4 4 3 3 4 4 4 4 4 5 5 6 6 6 7 6
10 11 10 10 9 9 9 8 8 8 7 6 6 6 6 6 6 6 5 5 4 4 4 4 4 4 4 4 5 5 3 3 4 4 4 4 4 5 4 4 5 6 7
10 10 10 10 10 9 8 8 8 7 6 6 6 7 6 6 6 5 5 5 4 4 4 4 4 4 4 5 4 4 3 3 3 4 5 5 5 5 5 4 4 3 4
9 9 9 9 9 9 8 8 8 7 6 7 7 7 6 6 6 5 5 4 4 4 4 4 4 4 4 5 4 4 3 3 3 4 4 4 5 5 6 5 5 4 3
8 9 9 8 8 8 8 7 7 7 7 8 8 7 7 6 6 5 5 4 3 4 4 4 4 4 4 5 5 5 3 3 3 3 4 5 5 6 7 6 6 5 4
9 8 8 7 8 8 7 7 7 7 8 8 7 7 7 6 6 5 4 3 3 3 3 4 4 4 5 5 6 6 4 4 4 3 3 4 6 7 7 6 5 5 4
9 8 8 8 8 7 7 7 8 8 7 7 7 7 6 6 5 4 4 3 3 3 3 3 4 4 4 5 5 6 6 5 4 5 4 4 6 6 6 4 4 5 4
9 8 8 9 9 8 7 7 9 8 7 7 7 7 7 5 5 4 4 3 2 3 3 3 4 4 3 4 6 6 6 6 4 4 5 5 5 4 4 4 5 5 4
8 8 8 9 10 9 8 7 8 7 6 6 6 6 6 6 5 4 3 3 3 3 3 4 4 4 4 4 3 4 4 4 3 3 4 5 4 3 3 3 3 3 4
8 7 7 8 10 10 9 8 8 7 6 6 6 6 5 5 5 4 4 4 4 4 5 4 5 4 5 5 7 5 3 3 3 2 2 2 2 2 2 2 2 3 3
7 7 8 9 9 9 9 9 7 6 6 6 6 5 4 4 4 4 5 6 6 8 8 8 7 6 7 9 8 7 5 4 3 3 3 3 3 3 3 3 2 2 3
Wind_Direction
359 4 4 5 9 8 7 0 5 8 24 24 26 251 247 271 252 272 181 172 173 172 168 163 167 167 172 175 162 143 141 141 139 115 92 38 58 102 109 118 126 126 136
5 5 6 5 7 5 360 351 352 354 1 338 298 247 252 241 229 243 218 180 174 175 177 172 179 178 172 171 170 153 150 154 163 141 132 119 353 328 141 131 157 148 137
4 358 0 0 1 1 353 341 341 339 340 348 14 18 27 13 293 285 251 237 194 181 184 182 180 181 179 186 185 176 166 170 189 174 155 158 198 223 287 218 190 184 175
1 359 357 357 356 346 342 341 341 342 345 355 30 66 22 288 273 275 262 243 213 198 190 182 180 183 186 191 194 192 177 168 181 174 137 142 150 157 183 273 238 212 207
357 355 356 353 352 350 345 344 348 351 351 356 2 39 351 313 314 312 290 248 225 212 198 184 183 189 195 197 198 195 191 179 180 175 158 128 109 127 157 202 238 251 236
356 354 354 353 355 355 353 354 356 354 355 356 354 359 339 334 336 331 311 291 260 236 218 199 195 199 200 200 203 199 197 197 185 181 173 167 166 172 166 182 205 226 248
356 354 353 353 354 354 354 356 358 352 352 355 344 339 323 289 275 293 283 294 275 256 240 220 207 205 207 207 203 200 201 201 193 190 192 189 183 166 164 159 175 202 251
356 352 348 349 346 347 351 353 355 352 350 351 341 333 333 309 284 280 281 267 263 260 247 230 218 218 210 208 205 207 206 204 201 198 192 193 192 179 175 167 157 166 230
349 347 345 347 344 345 346 347 349 351 350 346 344 347 340 321 306 298 284 272 274 276 263 244 231 221 217 213 209 218 212 203 205 203 200 201 198 191 185 174 171 168 195
344 342 342 343 341 340 339 347 355 351 347 347 344 338 339 325 310 306 295 288 285 284 275 255 244 232 222 217 214 220 214 205 207 202 198 203 202 193 189 188 187 181 181
336 335 336 336 338 343 346 350 352 352 350 346 342 340 330 328 326 308 303 294 286 279 261 255 244 236 229 220 217 219 213 210 211 202 202 209 197 195 193 187 185 188 176
332 332 334 338 343 347 349 348 347 347 342 338 337 333 328 328 329 317 305 306 296 285 270 258 247 242 235 228 224 221 214 212 215 210 203 209 202 200 197 192 193 195 186
334 337 342 343 343 343 342 341 339 338 335 336 336 332 333 329 323 318 305 299 294 292 290 269 255 253 243 233 233 227 216 214 218 216 206 204 198 206 203 196 196 195 190
334 339 341 339 338 337 339 336 332 330 332 333 334 332 331 325 321 317 310 303 296 287 288 279 263 256 255 243 234 233 222 213 219 225 213 203 201 205 201 200 199 189 183
336 336 335 333 333 334 335 335 333 333 336 338 339 332 328 325 325 320 311 307 304 298 288 282 277 265 253 251 240 231 225 217 217 226 221 212 206 206 204 202 195 186 185
327 327 327 327 328 328 329 330 331 331 333 335 333 331 333 330 325 318 313 309 302 299 300 291 280 271 260 265 257 250 227 225 216 222 223 215 207 203 205 206 198 188 185
321 322 320 318 318 319 320 322 322 324 327 327 327 327 329 328 326 321 317 307 294 291 288 284 276 269 264 271 265 259 239 232 224 221 219 218 213 200 199 203 203 204 201
317 317 316 315 315 315 318 320 320 322 322 322 322 322 323 319 316 315 314 311 296 282 276 277 273 273 271 273 268 271 245 237 236 232 223 213 210 208 192 186 195 209 212
305 306 307 307 311 316 319 321 320 321 323 321 319 317 316 313 311 308 304 300 301 299 291 280 274 273 272 271 269 273 244 240 243 243 230 211 210 209 191 184 191 205 214
312 312 313 316 318 318 321 321 319 321 317 314 314 313 311 306 302 294 291 292 294 294 298 294 282 272 269 268 264 259 239 237 240 247 232 219 217 211 199 193 191 203 204
314 317 317 319 316 318 323 319 315 310 308 311 313 314 313 306 298 292 290 287 287 289 285 287 289 280 276 275 265 255 236 230 228 236 237 229 223 217 213 206 205 208 193
321 324 324 320 320 323 324 318 312 309 312 313 313 314 313 308 307 305 298 288 279 280 281 284 289 283 277 278 270 258 250 249 227 230 232 230 224 219 214 209 201 188 176
318 322 320 320 323 326 325 315 312 316 319 319 317 316 316 316 312 304 300 296 282 275 280 277 281 287 287 279 278 266 257 255 238 233 232 227 215 206 204 198 191 182 179
316 320 322 323 323 325 324 313 313 319 320 319 319 322 323 321 320 309 297 290 279 274 272 273 275 280 283 276 269 261 253 246 243 232 217 210 205 200 196 191 194 196 194
313 317 318 316 317 322 322 321 322 325 322 319 319 323 322 316 316 315 303 291 277 271 275 273 268 270 274 279 286 273 252 233 231 211 203 195 189 192 193 191 187 189 186
311 315 316 316 317 321 323 325 326 326 323 321 322 322 321 318 316 317 318 314 307 306 301 293 283 277 279 288 293 288 272 256 232 211 200 198 200 206 205 201 199 193 193
Height
1501 1501 1500 1500 1500 1500 1501 1501 1502 1503 1505 1506 1508 1510 1512 1514 1516 1519 1521 1524 1526 1529 1531 1533 1535 1537 1539 1542 1544 1546 1548 1550 1552 1554 1556 1557 1559 1560 1561 1563 1564 1565 1566
1500 1499 1498 1498 1498 1498 1498 1499 1500 1501 1502 1504 1505 1507 1509 1511 1513 1515 1518 1520 1523 1525 1527 1530 1532 1534 1536 1539 1541 1543 1545 1547 1549 1551 1553 1555 1557 1558 1559 1560 1562 1563 1564
1501 1499 1498 1497 1497 1496 1496 1497 1498 1499 1500 1501 1502 1504 1506 1507 1509 1511 1513 1516 1519 1521 1524 1526 1528 1531 1533 1535 1537 1540 1542 1544 1546 1548 1550 1552 1552 1554 1556 1557 1559 1560 1562
1501 1500 1498 1496 1495 1495 1495 1496 1496 1497 1498 1499 1499 1500 1501 1503 1505 1507 1509 1512 1515 1517 1520 1522 1525 1527 1529 1532 1534 1536 1539 1541 1542 1545 1547 1549 1550 1551 1552 1554 1556 1557 1558
1502 1499 1497 1496 1495 1494 1494 1494 1494 1494 1495 1496 1497 1498 1500 1501 1502 1504 1506 1508 1511 1513 1515 1518 1520 1523 1525 1528 1530 1533 1535 1537 1539 1541 1543 1545 1546 1548 1549 1550 1552 1554 1555
1502 1500 1498 1496 1494 1493 1492 1492 1492 1492 1493 1493 1494 1495 1497 1498 1499 1500 1502 1504 1506 1509 1511 1514 1516 1519 1521 1524 1526 1529 1531 1533 1536 1538 1540 1541 1543 1544 1546 1547 1548 1550 1552
1502 1499 1497 1494 1492 1491 1490 1490 1490 1490 1490 1490 1492 1493 1494 1495 1496 1498 1499 1500 1502 1504 1507 1509 1511 1514 1517 1520 1522 1525 1527 1529 1531 1533 1536 1538 1540 1542 1543 1545 1545 1547 1548
1502 1499 1497 1494 1493 1491 1489 1488 1488 1488 1488 1488 1489 1490 1491 1492 1493 1494 1496 1497 1499 1500 1503 1505 1508 1509 1512 1515 1518 1520 1523 1525 1527 1529 1531 1534 1536 1538 1540 1541 1543 1543 1545
1502 1499 1497 1494 1492 1490 1488 1487 1486 1486 1486 1486 1487 1487 1487 1489 1490 1491 1492 1494 1495 1497 1499 1501 1503 1505 1508 1510 1513 1516 1518 1520 1522 1525 1527 1529 1531 1533 1535 1537 1539 1541 1541
1502 1499 1496 1493 1491 1489 1487 1486 1485 1485 1484 1484 1484 1484 1484 1486 1486 1487 1488 1489 1491 1493 1495 1496 1498 1500 1503 1505 1508 1510 1512 1515 1517 1519 1522 1524 1526 1528 1530 1532 1534 1536 1537
1502 1498 1495 1493 1490 1488 1486 1484 1483 1483 1482 1481 1481 1481 1482 1482 1482 1483 1484 1485 1486 1488 1490 1492 1493 1495 1498 1500 1502 1505 1507 1509 1511 1514 1516 1518 1521 1523 1525 1527 1529 1531 1532
1501 1498 1495 1491 1488 1486 1484 1483 1482 1481 1480 1479 1479 1478 1479 1479 1479 1479 1480 1481 1482 1483 1485 1486 1488 1490 1492 1495 1497 1499 1501 1504 1506 1508 1511 1513 1515 1517 1519 1521 1523 1525 1527
1500 1496 1493 1490 1487 1485 1483 1481 1480 1479 1478 1477 1476 1475 1475 1475 1475 1475 1476 1477 1477 1478 1480 1481 1483 1485 1487 1489 1491 1493 1496 1498 1500 1503 1505 1507 1510 1512 1514 1516 1518 1520 1522
1499 1495 1492 1489 1486 1484 1482 1480 1478 1477 1475 1474 1473 1472 1472 1471 1471 1471 1471 1472 1473 1474 1475 1476 1478 1480 1482 1483 1486 1488 1490 1492 1495 1497 1499 1502 1504 1506 1509 1511 1513 1515 1516
1498 1495 1492 1488 1485 1482 1480 1478 1476 1474 1472 1471 1470 1469 1468 1468 1468 1467 1467 1468 1468 1469 1470 1471 1472 1474 1476 1478 1480 1482 1484 1486 1489 1492 1494 1496 1498 1501 1503 1505 1507 1509 1511
1497 1494 1491 1488 1484 1481 1478 1476 1473 1472 1470 1468 1467 1466 1465 1464 1464 1463 1463 1463 1464 1465 1466 1466 1468 1469 1471 1473 1475 1477 1479 1481 1484 1486 1488 1490 1493 1495 1497 1499 1501 1503 1505
1496 1493 1489 1486 1483 1480 1477 1474 1471 1469 1468 1466 1464 1462 1461 1460 1459 1459 1459 1459 1460 1461 1462 1463 1464 1465 1466 1468 1470 1472 1475 1476 1478 1480 1482 1484 1487 1489 1491 1494 1496 1497 1499
1495 1491 1487 1483 1481 1477 1475 1472 1470 1467 1465 1463 1461 1459 1457 1456 1456 1455 1455 1455 1456 1456 1457 1458 1459 1460 1461 1464 1466 1468 1470 1471 1473 1475 1477 1479 1481 1483 1485 1488 1490 1492 1493
1493 1489 1486 1482 1478 1475 1472 1469 1466 1463 1461 1459 1457 1456 1454 1452 1451 1451 1451 1451 1451 1452 1453 1453 1454 1455 1457 1459 1461 1463 1464 1466 1467 1469 1471 1473 1475 1477 1480 1482 1484 1486 1488
1490 1487 1483 1479 1475 1472 1469 1466 1463 1460 1458 1456 1455 1453 1451 1449 1448 1447 1447 1447 1448 1448 1449 1449 1450 1451 1452 1454 1456 1458 1459 1460 1462 1464 1466 1468 1470 1472 1474 1476 1478 1480 1482
1488 1484 1480 1476 1473 1470 1467 1463 1460 1458 1456 1454 1452 1450 1448 1446 1445 1444 1444 1444 1444 1445 1445 1446 1446 1447 1448 1449 1451 1453 1454 1455 1457 1459 1461 1463 1465 1467 1469 1471 1472 1474 1476
1485 1481 1477 1474 1471 1468 1465 1461 1459 1457 1454 1452 1449 1447 1446 1444 1443 1441 1441 1441 1441 1441 1441 1441 1442 1443 1444 1445 1446 1448 1449 1451 1453 1454 1456 1457 1459 1461 1463 1465 1467 1469 1471
1482 1479 1475 1471 1468 1466 1463 1459 1457 1454 1451 1449 1446 1444 1443 1441 1440 1439 1438 1437 1437 1437 1437 1437 1437 1438 1439 1440 1441 1443 1444 1446 1448 1449 1450 1452 1454 1456 1457 1459 1461 1463 1465
1480 1477 1473 1469 1466 1463 1461 1458 1455 1452 1449 1446 1444 1442 1440 1438 1437 1436 1435 1434 1434 1434 1434 1433 1433 1434 1435 1435 1436 1437 1439 1441 1442 1444 1445 1447 1449 1451 1452 1454 1456 1458 1460
1478 1474 1471 1467 1464 1462 1459 1456 1453 1450 1446 1444 1442 1440 1438 1436 1434 1433 1432 1431 1431 1430 1430 1430 1430 1430 1430 1431 1432 1433 1434 1435 1436 1438 1440 1441 1443 1445 1447 1449 1451 1453 1454
1475 1472 1469 1466 1462 1459 1457 1454 1451 1448 1444 1441 1439 1438 1436 1434 1432 1430 1429 1428 1427 1427 1426 1426 1426 1426 1427 1427 1428 1428 1430 1431 1432 1434 1434 1436 1438 1440 1442 1444 1446 1448 1449